Regional Weather Roundup
Issued by NWS

Home | Current Version | Previous Version | Text Only | Print | Product List | Glossary On
Versions: 1 2 3 4 5 6 7 8 9 10 11 12 13 14 15 16 17 18 19 20 21 22 23 24 25 26 27 28 29 30 31 32 33 34 35 36 37 38 39 40 41 42 43 44 45 46 47 48 49 50
000
ASUS43 KDTX 061010
RWRMI
MICHIGAN HOURLY REGIONAL WEATHER ROUNDUP
NATIONAL WEATHER SERVICE DETROIT/PONTIAC MI
500 AM EST TUE DEC 06 2016

NOTE: "FAIR" INDICATES FEW OR NO CLOUDS BELOW 12,000 FEET WITH NO
SIGNIFICANT WEATHER AND/OR OBSTRUCTION TO VISIBILITY.

MIZ047>049-052>055-059>063-066>070-074>076-081>083-061100-
SOUTHEAST LOWER MICHIGAN

CITY           SKY/WX    TMP DP  RH WIND       PRES   REMARKS
ADRIAN         PTCLDY    31  30  96 E7        29.93F WCI  24
ALMA           PTCLDY    29  27  94 E5        29.96F WCI  23
ANN ARBOR      CLOUDY    33  31  92 NE6       29.94F WCI  28
BAD AXE        CLEAR     28  26  94 CALM      30.00S FOG
CARO           CLEAR     28  27  96 CALM      29.99R
DETROIT CITY   MOCLDY    36  33  89 E7        29.98F WCI  30
DETROIT        CLOUDY    35  31  85 E7        29.97F FOG     WCI  29
FLINT          CLOUDY    28  26  92 E6        29.97F WCI  22
GROSSE ILE     CLOUDY    33  31  92 E6        29.95F WCI  28
HILLSDALE      PTCLDY    32  30  93 E14       29.87F WCI  22
HOWELL         CLOUDY    33  30  90 E8        29.93F WCI  26

CITY           SKY/WX    TMP DP  RH WIND       PRES   REMARKS
JACKSON        FLURRIES  31  28  89 E9        29.89F WCI  23
LAMBERTVILLE   CLOUDY    37  32  83 E5        29.93F WCI  33
LANSING        CLOUDY    32  28  85 E12       29.92F WCI  23
LAPEER         NOT AVBL
MASON          CLOUDY    32  31  95 E9        29.91F WCI  24
MONROE         MOCLDY    38  33  84 E9G16     29.94F WCI  31
MT. CLEMENS    MOCLDY    36  32  87 E12       29.96F WCI  27
PONTIAC        CLOUDY    33  30  88 E6        29.95F WCI  28
PORT HOPE        N/A     30  29  96 CALM      29.99S
PORT HURON     CLOUDY    25  25 100 CALM      30.00F FOG
TRI CITIES     PTCLDY    28  28 100 E3        29.99F FOG
MIDLAND        FAIR      28  27  95 CALM      29.98S FOG
TROY           CLOUDY    34  30  86 NE7       29.98F WCI  28
SAGINAW HB     CLOUDY    32  28  86 E3        29.99S
$$
MIZ043>046-050>051-056>058-064>065-071>073-077>080-061100-
SOUTHWEST LOWER MICHIGAN

CITY           SKY/WX    TMP DP  RH WIND       PRES   REMARKS
BATTLE CREEK   CLOUDY    31  29  92 E8        29.89F WCI  23
BENTON HARBOR  PTCLDY    32  28  85 E7        29.86F FOG     WCI  26
BIG RAPIDS     PTCLDY    31  28  86 E6        29.92F WCI  25
COLDWATER      CLOUDY    33  29  86 E7        29.88S WCI  27
FREMONT        FAIR      30  27  87 E3        29.91F
HOLLAND        MOCLDY    29  27  92 E6        29.89F WCI  23
GRAND RAPIDS   PTCLDY    29  26  89 E10       29.91F FOG     WCI  20
IONIA          FAIR      29  28  95 E9        29.91F FOG     WCI  21
KALAMAZOO      MOCLDY    30  26  85 E5        29.89F FOG     WCI  25
LUDINGTON      CLOUDY    32  30  92 SE6       29.90F WCI  26
MARSHALL       PTCLDY    30  29  96 E7        29.89F WCI  23
MOUNT PLEASANT PTCLDY    27  27  98 E6        29.96F FOG     WCI  21
MUSKEGON       PTCLDY    31  28  89 E8        29.91F WCI  23
SOUTH HAVEN    PTCLDY    32  30  93 E7        29.87F WCI  26
$$
MIZ016>042-061100-
NORTHERN LOWER MICHIGAN

CITY           SKY/WX    TMP DP  RH WIND       PRES   REMARKS
ALPENA         CLOUDY    28  26  92 CALM      29.99F
BEAVER ISLAND  CLOUDY    39  37  93 SE9G17    29.92F WCI  33
BELLAIRE       CLOUDY    31  31  99 CALM      29.95F FOG
CADILLAC       PTCLDY    30  28  90 SE5       29.91F WCI  26
CHARLEVOIX     CLOUDY    35  32  88 E7        29.96F WCI  29
FRANKFORT      PTCLDY    35  32  89 SE7       29.90F WCI  29
GAYLORD        MOCLDY    30  26  85 SE7       29.93F WCI  23
GRAYLING       CLOUDY    32  31  97 SE5       29.96S FOG     WCI  27
HARBOR SPRINGS CLOUDY    33  31  92 NE6       29.95F WCI  27
HOUGHTON LAKE  PTCLDY    29  27  92 CALM      29.95F
MANISTEE       CLOUDY    32  29  88 E7        29.90F WCI  26
OSCODA         CLOUDY    31  29  94 CALM      30.00S
PELLSTON       CLOUDY    34  30  85 SE7       29.96F WCI  28
ROGERS CITY    CLOUDY    34  30  87 CALM      30.00S
TRAVERSE CITY  CLOUDY    35  31  85 VRB3      29.92F
$$
MIZ007>008-015-061100-
EASTERN UPPER MICHIGAN

CITY           SKY/WX    TMP DP  RH WIND       PRES   REMARKS
KINROSS        CLOUDY    33  32  96 SE10      29.96F WCI  25
MACKINAC ISLAN CLOUDY    36  32  85 S8        29.95F WCI  30
NEWBERRY       CLOUDY    33  32  96 E10       29.89F FOG     WCI  25
S. S. MARIE    CLOUDY    35  31  85 E6        29.96F WCI  30
MUNISING         N/A     36  34  92 S8        29.84F WCI  30
$$
MIZ004>006-011>014-085-061100-
CENTRAL UPPER MICHIGAN

CITY           SKY/WX    TMP DP  RH WIND       PRES   REMARKS
MANISTIQUE     CLOUDY    38  36  92 SE8       29.87F WCI  32
ESCANABA       CLOUDY    42  38  85 S15G23    29.85F
MENOMINEE      CLOUDY    40  36  86 S9G18     29.86S WCI  34
SAWYER-GWINN   CLOUDY    34  33  98 S7        29.82S FOG     WCI  28
$$
MIZ001>003-009>011-084-061100-
WESTERN UPPER MICHIGAN

CITY           SKY/WX    TMP DP  RH WIND       PRES   REMARKS
IRON MOUNTAIN  CLOUDY    34  32  92 S12       29.81S FOG     WCI  25
HOUGHTON       CLOUDY    36  31  82 SE8       29.73F WCI  30
COPPER HARBOR    N/A     39  35  86 S10G21    29.78F WCI  32
IRONWOOD       CLOUDY    35  28  75 S13G24    29.66F WCI  26
$$

ABBREVIATIONS USED IN REMARKS
   TC - TEMPERATURE IN CELSIUS
  WCI - WIND CHILL INDEX
   HX - HEAT INDEX
  VSB - VISIBILITY




USA.gov is the U.S. government's official web portal to all federal, state and local government web resources and services.